Year,Month,Day,Hour,Minute,Value (Times are PST for temperature in C)
2004,04,01,00,00,5.90
2004,04,01,00,01,6.00
2004,04,01,00,02,6.00
2004,04,01,00,03,5.90
2004,04,01,00,04,5.80
2004,04,01,00,05,5.80
2004,04,01,00,06,5.80
2004,04,01,00,07,5.80
2004,04,01,00,08,5.90
2004,04,01,00,09,5.90
2004,04,01,00,10,5.90
2004,04,01,00,11,5.90
2004,04,01,00,12,6.00
2004,04,01,00,13,6.10
2004,04,01,00,14,6.10
2004,04,01,00,15,6.20
2004,04,01,00,16,6.10
2004,04,01,00,17,6.10
2004,04,01,00,18,6.10
2004,04,01,00,19,6.10
2004,04,01,00,20,6.10
2004,04,01,00,21,6.00
2004,04,01,00,22,6.00
2004,04,01,00,23,6.00
2004,04,01,00,24,5.90
2004,04,01,00,25,5.90
2004,04,01,00,26,5.90
2004,04,01,00,27,5.90
2004,04,01,00,28,5.90
2004,04,01,00,29,5.80
2004,04,01,00,30,5.70
2004,04,01,00,31,5.60
2004,04,01,00,32,5.60
2004,04,01,00,33,5.50
2004,04,01,00,34,5.50
2004,04,01,00,35,5.40
2004,04,01,00,36,5.40
2004,04,01,00,37,5.30
2004,04,01,00,38,5.30
2004,04,01,00,39,5.30
2004,04,01,00,40,5.30
2004,04,01,00,41,5.30
2004,04,01,00,42,5.30
2004,04,01,00,43,5.30
2004,04,01,00,44,5.30
2004,04,01,00,45,5.30
2004,04,01,00,46,5.30
2004,04,01,00,47,5.30
2004,04,01,00,48,5.30
2004,04,01,00,49,5.30
2004,04,01,00,50,5.30
2004,04,01,00,51,5.30
2004,04,01,00,52,5.30
2004,04,01,00,53,5.30
2004,04,01,00,54,5.30
2004,04,01,00,55,5.20
2004,04,01,00,56,5.10
2004,04,01,00,57,5.10
2004,04,01,00,58,4.90
2004,04,01,00,59,4.80
2004,04,01,01,00,4.70
2004,04,01,01,01,4.60
2004,04,01,01,02,4.50
2004,04,01,01,03,4.40
2004,04,01,01,04,4.30
2004,04,01,01,05,4.30
2004,04,01,01,06,4.20
2004,04,01,01,07,4.20
2004,04,01,01,08,4.10
2004,04,01,01,09,4.10
2004,04,01,01,10,4.00
2004,04,01,01,11,4.00
2004,04,01,01,12,4.00
2004,04,01,01,13,4.10
2004,04,01,01,14,4.10
2004,04,01,01,15,4.10
2004,04,01,01,16,4.10
2004,04,01,01,17,4.20
2004,04,01,01,18,4.20
2004,04,01,01,19,4.30
2004,04,01,01,20,4.40
2004,04,01,01,21,4.50
2004,04,01,01,22,4.60
2004,04,01,01,23,4.60
2004,04,01,01,24,4.70
2004,04,01,01,25,4.70
2004,04,01,01,26,4.70
2004,04,01,01,27,4.80
2004,04,01,01,28,4.90
2004,04,01,01,29,4.90
2004,04,01,01,30,4.90
2004,04,01,01,31,4.90
2004,04,01,01,32,4.90
2004,04,01,01,33,4.90
2004,04,01,01,34,4.90
2004,04,01,01,35,5.10
2004,04,01,01,36,5.00
2004,04,01,01,37,4.90
2004,04,01,01,38,4.80
2004,04,01,01,39,4.80
2004,04,01,01,40,4.80
2004,04,01,01,41,4.90
2004,04,01,01,42,4.80
2004,04,01,01,43,4.80
2004,04,01,01,44,4.80
2004,04,01,01,45,4.80
2004,04,01,01,46,4.90
2004,04,01,01,47,4.90
2004,04,01,01,48,4.90
2004,04,01,01,49,5.00
2004,04,01,01,50,4.90
2004,04,01,01,51,4.90
2004,04,01,01,52,5.00
2004,04,01,01,53,5.00
2004,04,01,01,54,5.10
2004,04,01,01,55,5.10
2004,04,01,01,56,5.00
2004,04,01,01,57,5.00
2004,04,01,01,58,4.90
2004,04,01,01,59,4.90
2004,04,01,02,00,4.90
2004,04,01,02,01,4.90
2004,04,01,02,02,4.70
2004,04,01,02,03,4.60
2004,04,01,02,04,4.50
2004,04,01,02,05,4.40
2004,04,01,02,06,4.50
2004,04,01,02,07,4.50
2004,04,01,02,08,4.50
2004,04,01,02,09,4.50
2004,04,01,02,10,4.40
2004,04,01,02,11,4.40
2004,04,01,02,12,4.40
2004,04,01,02,13,4.30
2004,04,01,02,14,4.30
2004,04,01,02,15,4.30
2004,04,01,02,16,4.20
2004,04,01,02,17,4.20
2004,04,01,02,18,4.20
2004,04,01,02,19,4.20
2004,04,01,02,20,4.30
2004,04,01,02,21,4.20
2004,04,01,02,22,4.20
2004,04,01,02,23,4.10
2004,04,01,02,24,4.20
2004,04,01,02,25,4.20
2004,04,01,02,26,4.20
2004,04,01,02,27,4.20
2004,04,01,02,28,4.20
2004,04,01,02,29,4.20
2004,04,01,02,30,4.20
2004,04,01,02,31,4.20
2004,04,01,02,32,4.20
2004,04,01,02,33,4.20
2004,04,01,02,34,4.20
2004,04,01,02,35,4.20
2004,04,01,02,36,4.20
2004,04,01,02,37,4.20
2004,04,01,02,38,4.20
2004,04,01,02,39,4.20
2004,04,01,02,40,4.10
2004,04,01,02,41,4.00
2004,04,01,02,42,4.00
2004,04,01,02,43,4.00
2004,04,01,02,44,4.00
2004,04,01,02,45,3.90
2004,04,01,02,46,3.90
2004,04,01,02,47,3.90
2004,04,01,02,48,3.90
2004,04,01,02,49,3.90
2004,04,01,02,50,3.90
2004,04,01,02,51,3.80
2004,04,01,02,52,3.80
2004,04,01,02,53,3.80
2004,04,01,02,54,3.70
2004,04,01,02,55,3.70
2004,04,01,02,56,3.70
2004,04,01,02,57,3.70
2004,04,01,02,58,3.80
2004,04,01,02,59,3.80
2004,04,01,03,00,3.80
2004,04,01,03,01,3.70
2004,04,01,03,02,3.70
2004,04,01,03,03,3.70
2004,04,01,03,04,3.70
2004,04,01,03,05,3.60
2004,04,01,03,06,3.50
2004,04,01,03,07,3.40
2004,04,01,03,08,3.40
2004,04,01,03,09,3.30
2004,04,01,03,10,3.30
2004,04,01,03,11,3.20
2004,04,01,03,12,3.10
2004,04,01,03,13,3.10
2004,04,01,03,14,3.10
2004,04,01,03,15,3.10
2004,04,01,03,16,3.00
2004,04,01,03,17,3.00
2004,04,01,03,18,3.10
2004,04,01,03,19,3.20
2004,04,01,03,20,3.30
2004,04,01,03,21,3.30
2004,04,01,03,22,3.30
2004,04,01,03,23,3.30
2004,04,01,03,24,3.20
2004,04,01,03,25,3.10
2004,04,01,03,26,3.00
2004,04,01,03,27,2.90
2004,04,01,03,28,2.90
2004,04,01,03,29,2.90
2004,04,01,03,30,2.90
2004,04,01,03,31,2.90
2004,04,01,03,32,3.00
2004,04,01,03,33,3.10
2004,04,01,03,34,3.10
2004,04,01,03,35,3.10
2004,04,01,03,36,3.20
2004,04,01,03,37,3.20
2004,04,01,03,38,3.20
2004,04,01,03,39,3.20
2004,04,01,03,40,3.20
2004,04,01,03,41,3.10
2004,04,01,03,42,3.10
2004,04,01,03,43,3.10
2004,04,01,03,44,3.10
2004,04,01,03,45,3.10
2004,04,01,03,46,3.10
2004,04,01,03,47,3.10
2004,04,01,03,48,3.00
2004,04,01,03,49,2.90
2004,04,01,03,50,2.90
2004,04,01,03,51,2.80
2004,04,01,03,52,2.90
2004,04,01,03,53,2.90
2004,04,01,03,54,2.90
2004,04,01,03,55,3.00
2004,04,01,03,56,3.00
2004,04,01,03,57,3.10
2004,04,01,03,58,3.10
2004,04,01,03,59,3.10
2004,04,01,04,00,3.10
2004,04,01,04,01,3.10
2004,04,01,04,02,3.10
2004,04,01,04,03,3.10
2004,04,01,04,04,3.10
2004,04,01,04,05,3.20
2004,04,01,04,06,3.20
2004,04,01,04,07,3.20
2004,04,01,04,08,3.20
2004,04,01,04,09,3.10
2004,04,01,04,10,3.20
2004,04,01,04,11,3.10
2004,04,01,04,12,3.20
2004,04,01,04,13,3.20
2004,04,01,04,14,3.20
2004,04,01,04,15,3.20
2004,04,01,04,16,3.20
2004,04,01,04,17,3.10
2004,04,01,04,18,3.00
2004,04,01,04,19,2.90
2004,04,01,04,20,2.90
2004,04,01,04,21,2.90
2004,04,01,04,22,2.90
2004,04,01,04,23,2.80
2004,04,01,04,24,2.80
2004,04,01,04,25,2.80
2004,04,01,04,26,2.80
2004,04,01,04,27,2.90
2004,04,01,04,28,2.80
2004,04,01,04,29,2.80
2004,04,01,04,30,2.90
2004,04,01,04,31,2.90
2004,04,01,04,32,2.90
2004,04,01,04,33,2.80
2004,04,01,04,34,2.90
2004,04,01,04,35,2.90
2004,04,01,04,36,2.90
2004,04,01,04,37,2.80
2004,04,01,04,38,2.80
2004,04,01,04,39,2.70
2004,04,01,04,40,2.70
2004,04,01,04,41,2.70
2004,04,01,04,42,2.70
2004,04,01,04,43,2.70
2004,04,01,04,44,2.70
2004,04,01,04,45,2.70
2004,04,01,04,46,2.60
2004,04,01,04,47,2.60
2004,04,01,04,48,2.60
2004,04,01,04,49,2.50
2004,04,01,04,50,2.50
2004,04,01,04,51,2.40
2004,04,01,04,52,2.30
2004,04,01,04,53,2.30
2004,04,01,04,54,2.20
2004,04,01,04,55,2.20
2004,04,01,04,56,2.20
2004,04,01,04,57,2.20
2004,04,01,04,58,2.20
2004,04,01,04,59,2.20
2004,04,01,05,00,2.20
2004,04,01,05,01,2.30
2004,04,01,05,02,2.40
2004,04,01,05,03,2.40
2004,04,01,05,04,2.30
2004,04,01,05,05,2.20
2004,04,01,05,06,2.20
2004,04,01,05,07,2.20
2004,04,01,05,08,2.20
2004,04,01,05,09,2.20
2004,04,01,05,10,2.30
2004,04,01,05,11,2.30
2004,04,01,05,12,2.20
2004,04,01,05,13,2.20
2004,04,01,05,14,2.20
2004,04,01,05,15,2.30
2004,04,01,05,16,2.40
2004,04,01,05,17,2.40
2004,04,01,05,18,2.50
2004,04,01,05,19,2.50
2004,04,01,05,20,2.50
2004,04,01,05,21,2.40
2004,04,01,05,22,2.30
2004,04,01,05,23,2.30
2004,04,01,05,24,2.20
2004,04,01,05,25,2.20
2004,04,01,05,26,2.20
2004,04,01,05,27,2.10
2004,04,01,05,28,2.00
2004,04,01,05,29,2.00
2004,04,01,05,30,1.90
2004,04,01,05,31,1.80
2004,04,01,05,32,1.70
2004,04,01,05,33,1.60
2004,04,01,05,34,1.60
2004,04,01,05,35,1.50
2004,04,01,05,36,1.50
2004,04,01,05,37,1.50
2004,04,01,05,38,1.60
2004,04,01,05,39,1.60
2004,04,01,05,40,1.60
2004,04,01,05,41,1.60
2004,04,01,05,42,1.60
2004,04,01,05,43,1.60
2004,04,01,05,44,1.60
2004,04,01,05,45,1.60
2004,04,01,05,46,1.70
2004,04,01,05,47,1.80
2004,04,01,05,48,1.80
2004,04,01,05,49,1.70
2004,04,01,05,50,1.70
2004,04,01,05,51,1.70
2004,04,01,05,52,1.60
2004,04,01,05,53,1.60
2004,04,01,05,54,1.70
2004,04,01,05,55,1.70
2004,04,01,05,56,1.80
2004,04,01,05,57,1.90
2004,04,01,05,58,2.00
2004,04,01,05,59,2.10
2004,04,01,06,00,2.20
2004,04,01,06,01,2.20
2004,04,01,06,02,2.10
2004,04,01,06,03,2.00
2004,04,01,06,04,2.10
2004,04,01,06,05,2.20
2004,04,01,06,06,2.20
2004,04,01,06,07,2.30
2004,04,01,06,08,2.50
2004,04,01,06,09,2.50
2004,04,01,06,10,2.60
2004,04,01,06,11,2.50
2004,04,01,06,12,2.40
2004,04,01,06,13,2.30
2004,04,01,06,14,2.20
2004,04,01,06,15,2.20
2004,04,01,06,16,2.20
2004,04,01,06,17,2.20
2004,04,01,06,18,2.10
2004,04,01,06,19,2.10
2004,04,01,06,20,2.20
2004,04,01,06,21,2.20
2004,04,01,06,22,2.30
2004,04,01,06,23,2.50
2004,04,01,06,24,2.50
2004,04,01,06,25,2.70
2004,04,01,06,26,2.90
2004,04,01,06,27,3.00
2004,04,01,06,28,3.10
2004,04,01,06,29,3.20
2004,04,01,06,30,3.30
2004,04,01,06,31,3.30
2004,04,01,06,32,3.30
2004,04,01,06,33,3.30
2004,04,01,06,34,3.40
2004,04,01,06,35,3.50
2004,04,01,06,36,3.50
2004,04,01,06,37,3.70
2004,04,01,06,38,3.70
2004,04,01,06,39,3.80
2004,04,01,06,40,3.80
2004,04,01,06,41,3.80
2004,04,01,06,42,3.80
2004,04,01,06,43,3.90
2004,04,01,06,44,4.00
2004,04,01,06,45,4.10
2004,04,01,06,46,4.20
2004,04,01,06,47,4.20
2004,04,01,06,48,4.30
2004,04,01,06,49,4.30
2004,04,01,06,50,4.40
2004,04,01,06,51,4.50
2004,04,01,06,52,4.70
2004,04,01,06,53,4.80
2004,04,01,06,54,4.90
2004,04,01,06,55,5.10
2004,04,01,06,56,5.10
2004,04,01,06,57,5.10
2004,04,01,06,58,5.10
2004,04,01,06,59,5.10
2004,04,01,07,00,5.10
2004,04,01,07,01,5.20
2004,04,01,07,02,5.20
2004,04,01,07,03,5.30
2004,04,01,07,04,5.40
2004,04,01,07,05,5.50
2004,04,01,07,06,5.60
2004,04,01,07,07,5.60
2004,04,01,07,08,5.70
2004,04,01,07,09,5.70
2004,04,01,07,10,5.80
2004,04,01,07,11,5.90
2004,04,01,07,12,6.00
2004,04,01,07,13,6.10
2004,04,01,07,14,6.20
2004,04,01,07,15,6.20
2004,04,01,07,16,6.30
2004,04,01,07,17,6.40
2004,04,01,07,18,6.40
2004,04,01,07,19,6.60
2004,04,01,07,20,6.70
2004,04,01,07,21,6.80
2004,04,01,07,22,6.90
2004,04,01,07,23,6.90
2004,04,01,07,24,7.00
2004,04,01,07,25,7.10
2004,04,01,07,26,7.20
2004,04,01,07,27,7.30
2004,04,01,07,28,7.40
2004,04,01,07,29,7.50
2004,04,01,07,30,7.60
2004,04,01,07,31,7.60
2004,04,01,07,32,7.70
2004,04,01,07,33,7.70
2004,04,01,07,34,7.80
2004,04,01,07,35,7.90
2004,04,01,07,36,7.90
2004,04,01,07,37,8.00
2004,04,01,07,38,8.00
2004,04,01,07,39,8.00
2004,04,01,07,40,8.00
2004,04,01,07,41,8.00
2004,04,01,07,42,8.00
2004,04,01,07,43,8.00
2004,04,01,07,44,8.00
2004,04,01,07,45,7.90
2004,04,01,07,46,8.00
2004,04,01,07,47,8.00
2004,04,01,07,48,8.10
2004,04,01,07,49,8.20
2004,04,01,07,50,8.20
2004,04,01,07,51,8.10
2004,04,01,07,52,8.10
2004,04,01,07,53,7.90
2004,04,01,07,54,7.80
2004,04,01,07,55,7.80
2004,04,01,07,56,7.80
2004,04,01,07,57,7.80
2004,04,01,07,58,7.80
2004,04,01,07,59,7.80
2004,04,01,08,00,7.90
2004,04,01,08,01,8.00
2004,04,01,08,02,8.10
2004,04,01,08,03,8.20
2004,04,01,08,04,8.10
2004,04,01,08,05,8.00
2004,04,01,08,06,8.00
2004,04,01,08,07,7.90
2004,04,01,08,08,7.80
2004,04,01,08,09,7.70
2004,04,01,08,10,7.50
2004,04,01,08,11,7.30
2004,04,01,08,12,7.30
2004,04,01,08,13,7.10
2004,04,01,08,14,7.10
2004,04,01,08,15,7.10
2004,04,01,08,16,7.00
2004,04,01,08,17,7.10
2004,04,01,08,18,7.10
2004,04,01,08,19,7.20
2004,04,01,08,20,7.20
2004,04,01,08,21,7.30
2004,04,01,08,22,7.30
2004,04,01,08,23,7.20
2004,04,01,08,24,7.20
2004,04,01,08,25,7.10
2004,04,01,08,26,7.10
2004,04,01,08,27,7.00
2004,04,01,08,28,7.10
2004,04,01,08,29,7.10
2004,04,01,08,30,7.20
2004,04,01,08,31,7.30
2004,04,01,08,32,7.30
2004,04,01,08,33,7.30
2004,04,01,08,34,7.30
2004,04,01,08,35,7.30
2004,04,01,08,36,7.30
2004,04,01,08,37,7.40
2004,04,01,08,38,7.50
2004,04,01,08,39,7.50
2004,04,01,08,40,7.50
2004,04,01,08,41,7.60
2004,04,01,08,42,7.70
2004,04,01,08,43,7.80
2004,04,01,08,44,7.80
2004,04,01,08,45,7.70
2004,04,01,08,46,7.70
2004,04,01,08,47,7.70
2004,04,01,08,48,7.70
2004,04,01,08,49,7.70
2004,04,01,08,50,7.70
2004,04,01,08,51,7.70
2004,04,01,08,52,7.60
2004,04,01,08,53,7.50
2004,04,01,08,54,7.60
2004,04,01,08,55,7.60
2004,04,01,08,56,7.70
2004,04,01,08,57,7.60
2004,04,01,08,58,7.60
2004,04,01,08,59,7.60
2004,04,01,09,00,7.50
2004,04,01,09,01,7.50
2004,04,01,09,02,7.60
2004,04,01,09,03,7.70
2004,04,01,09,04,7.70
2004,04,01,09,05,7.80
2004,04,01,09,06,7.80
2004,04,01,09,07,7.80
2004,04,01,09,08,7.80
2004,04,01,09,09,7.90
2004,04,01,09,10,7.80
2004,04,01,09,11,7.80
2004,04,01,09,12,7.80
2004,04,01,09,13,7.70
2004,04,01,09,14,7.70
2004,04,01,09,15,7.60
2004,04,01,09,16,7.60
2004,04,01,09,17,7.60
2004,04,01,09,18,7.70
2004,04,01,09,19,7.80
2004,04,01,09,20,7.80
2004,04,01,09,21,7.90
2004,04,01,09,22,7.90
2004,04,01,09,23,7.90
2004,04,01,09,24,8.00
2004,04,01,09,25,8.00
2004,04,01,09,26,7.90
2004,04,01,09,27,7.80
2004,04,01,09,28,7.80
2004,04,01,09,29,7.80
2004,04,01,09,30,7.80
2004,04,01,09,31,7.70
2004,04,01,09,32,7.70
2004,04,01,09,33,7.70
2004,04,01,09,34,7.60
2004,04,01,09,35,7.60
2004,04,01,09,36,7.60
2004,04,01,09,37,7.70
2004,04,01,09,38,7.70
2004,04,01,09,39,7.80
2004,04,01,09,40,7.90
2004,04,01,09,41,8.00
2004,04,01,09,42,8.20
2004,04,01,09,43,8.20
2004,04,01,09,44,8.30
2004,04,01,09,45,8.40
2004,04,01,09,46,8.40
2004,04,01,09,47,8.40
2004,04,01,09,48,8.40
2004,04,01,09,49,8.30
2004,04,01,09,50,8.30
2004,04,01,09,51,8.20
2004,04,01,09,52,8.30
2004,04,01,09,53,8.40
2004,04,01,09,54,8.40
2004,04,01,09,55,8.40
2004,04,01,09,56,8.50
2004,04,01,09,57,8.40
2004,04,01,09,58,8.30
2004,04,01,09,59,8.30
2004,04,01,10,00,8.20
2004,04,01,10,01,8.20
2004,04,01,10,02,8.20
2004,04,01,10,03,8.20
2004,04,01,10,04,8.20
2004,04,01,10,05,8.20
2004,04,01,10,06,8.30
2004,04,01,10,07,8.40
2004,04,01,10,08,8.50
2004,04,01,10,09,8.60
2004,04,01,10,10,8.60
2004,04,01,10,11,8.60
2004,04,01,10,12,8.60
2004,04,01,10,13,8.50
2004,04,01,10,14,8.50
2004,04,01,10,15,8.50
2004,04,01,10,16,8.50
2004,04,01,10,17,8.50
2004,04,01,10,18,8.50
2004,04,01,10,19,8.40
2004,04,01,10,20,8.50
2004,04,01,10,21,8.50
2004,04,01,10,22,8.50
2004,04,01,10,23,8.50
2004,04,01,10,24,8.60
2004,04,01,10,25,8.70
2004,04,01,10,26,8.70
2004,04,01,10,27,8.80
2004,04,01,10,28,8.90
2004,04,01,10,29,9.00
2004,04,01,10,30,9.00
2004,04,01,10,31,9.00
2004,04,01,10,32,8.90
2004,04,01,10,33,8.90
2004,04,01,10,34,8.90
2004,04,01,10,35,8.90
2004,04,01,10,36,9.00
2004,04,01,10,37,8.90
2004,04,01,10,38,8.80
2004,04,01,10,39,8.80
2004,04,01,10,40,8.80
2004,04,01,10,41,8.90
2004,04,01,10,42,8.90
2004,04,01,10,43,8.90
2004,04,01,10,44,8.90
2004,04,01,10,45,8.90
2004,04,01,10,46,8.90
2004,04,01,10,47,8.90
2004,04,01,10,48,8.90
2004,04,01,10,49,9.10
2004,04,01,10,50,9.10
2004,04,01,10,51,9.00
2004,04,01,10,52,8.90
2004,04,01,10,53,8.90
2004,04,01,10,54,8.90
2004,04,01,10,55,8.90
2004,04,01,10,56,8.90
2004,04,01,10,57,8.90
2004,04,01,10,58,8.90
2004,04,01,10,59,8.90
2004,04,01,11,00,9.00
2004,04,01,11,01,9.00
2004,04,01,11,02,9.10
2004,04,01,11,03,9.20
2004,04,01,11,04,9.30
2004,04,01,11,05,9.40
2004,04,01,11,06,9.50
2004,04,01,11,07,9.50
2004,04,01,11,08,9.50
2004,04,01,11,09,9.50
2004,04,01,11,10,9.50
2004,04,01,11,11,9.50
2004,04,01,11,12,9.50
2004,04,01,11,13,9.50
2004,04,01,11,14,9.60
2004,04,01,11,15,9.60
2004,04,01,11,16,9.70
2004,04,01,11,17,9.70
2004,04,01,11,18,9.70
2004,04,01,11,19,9.70
2004,04,01,11,20,9.70
2004,04,01,11,21,9.70
2004,04,01,11,22,9.60
2004,04,01,11,23,9.50
2004,04,01,11,24,9.50
2004,04,01,11,25,9.40
2004,04,01,11,26,9.30
2004,04,01,11,27,9.40
2004,04,01,11,28,9.40
2004,04,01,11,29,9.40
2004,04,01,11,30,9.30
2004,04,01,11,31,9.40
2004,04,01,11,32,9.40
2004,04,01,11,33,9.40
2004,04,01,11,34,9.50
2004,04,01,11,35,9.50
2004,04,01,11,36,9.60
2004,04,01,11,37,9.70
2004,04,01,11,38,9.70
2004,04,01,11,39,9.70
2004,04,01,11,40,9.80
2004,04,01,11,41,9.80
2004,04,01,11,42,9.80
2004,04,01,11,43,9.90
2004,04,01,11,44,10.00
2004,04,01,11,45,10.00
2004,04,01,11,46,10.10
2004,04,01,11,47,10.10
2004,04,01,11,48,10.10
2004,04,01,11,49,10.10
2004,04,01,11,50,10.10
2004,04,01,11,51,10.10
2004,04,01,11,52,10.00
2004,04,01,11,53,9.90
2004,04,01,11,54,9.80
2004,04,01,11,55,9.70
2004,04,01,11,56,9.70
2004,04,01,11,57,9.70
2004,04,01,11,58,9.70
2004,04,01,11,59,9.70
2004,04,01,12,00,9.70
2004,04,01,12,01,9.70
2004,04,01,12,02,9.70
2004,04,01,12,03,9.80
2004,04,01,12,04,9.70
2004,04,01,12,05,9.80
2004,04,01,12,06,9.80
2004,04,01,12,07,9.70
2004,04,01,12,08,9.70
2004,04,01,12,09,9.50
2004,04,01,12,10,9.40
2004,04,01,12,11,9.30
2004,04,01,12,12,9.50
2004,04,01,12,13,9.70
2004,04,01,12,14,9.80
2004,04,01,12,15,9.70
2004,04,01,12,16,9.60
2004,04,01,12,17,9.40
2004,04,01,12,18,9.30
2004,04,01,12,19,9.20
2004,04,01,12,20,9.30
2004,04,01,12,21,9.30
2004,04,01,12,22,9.30
2004,04,01,12,23,9.50
2004,04,01,12,24,9.70
2004,04,01,12,25,9.80
2004,04,01,12,26,10.00
2004,04,01,12,27,10.10
2004,04,01,12,28,10.20
2004,04,01,12,29,10.40
2004,04,01,12,30,10.40
2004,04,01,12,31,10.40
2004,04,01,12,32,10.50
2004,04,01,12,33,10.50
2004,04,01,12,34,10.60
2004,04,01,12,35,10.60
2004,04,01,12,36,10.60
2004,04,01,12,37,10.50
2004,04,01,12,38,10.40
2004,04,01,12,39,10.60
2004,04,01,12,40,10.60
2004,04,01,12,41,10.60
2004,04,01,12,42,10.60
2004,04,01,12,43,10.60
2004,04,01,12,44,10.60
2004,04,01,12,45,10.60
2004,04,01,12,46,10.80
2004,04,01,12,47,10.70
2004,04,01,12,48,10.70
2004,04,01,12,49,10.60
2004,04,01,12,50,10.60
2004,04,01,12,51,10.70
2004,04,01,12,52,10.70
2004,04,01,12,53,10.90
2004,04,01,12,54,10.90
2004,04,01,12,55,10.90
2004,04,01,12,56,10.90
2004,04,01,12,57,10.90
2004,04,01,12,58,11.00
2004,04,01,12,59,11.10
2004,04,01,13,00,11.20
2004,04,01,13,01,11.30
2004,04,01,13,02,11.40
2004,04,01,13,03,11.40
2004,04,01,13,04,11.40
2004,04,01,13,05,11.30
2004,04,01,13,06,11.10
2004,04,01,13,07,11.00
2004,04,01,13,08,11.00
2004,04,01,13,09,11.00
2004,04,01,13,10,10.90
2004,04,01,13,11,10.90
2004,04,01,13,12,10.90
2004,04,01,13,13,11.00
2004,04,01,13,14,10.90
2004,04,01,13,15,10.90
2004,04,01,13,16,11.10
2004,04,01,13,17,11.10
2004,04,01,13,18,11.10
2004,04,01,13,19,11.30
2004,04,01,13,20,11.30
2004,04,01,13,21,11.30
2004,04,01,13,22,11.30
2004,04,01,13,23,11.20
2004,04,01,13,24,11.20
2004,04,01,13,25,11.30
2004,04,01,13,26,11.30
2004,04,01,13,27,11.20
2004,04,01,13,28,11.10
2004,04,01,13,29,11.00
2004,04,01,13,30,10.90
2004,04,01,13,31,10.90
2004,04,01,13,32,10.90
2004,04,01,13,33,10.90
2004,04,01,13,34,10.90
2004,04,01,13,35,10.80
2004,04,01,13,36,10.80
2004,04,01,13,37,10.80
2004,04,01,13,38,10.80
2004,04,01,13,39,10.90
2004,04,01,13,40,10.90
2004,04,01,13,41,10.90
2004,04,01,13,42,11.10
2004,04,01,13,43,11.10
2004,04,01,13,44,11.20
2004,04,01,13,45,11.30
2004,04,01,13,46,11.30
2004,04,01,13,47,11.30
2004,04,01,13,48,11.30
2004,04,01,13,49,11.40
2004,04,01,13,50,11.40
2004,04,01,13,51,11.40
2004,04,01,13,52,11.40
2004,04,01,13,53,11.20
2004,04,01,13,54,11.10
2004,04,01,13,55,11.10
2004,04,01,13,56,11.20
2004,04,01,13,57,11.20
2004,04,01,13,58,11.20
2004,04,01,13,59,11.20
2004,04,01,14,00,11.20
2004,04,01,14,01,11.10
2004,04,01,14,02,11.10
2004,04,01,14,03,11.10
2004,04,01,14,04,11.10
2004,04,01,14,05,11.10
2004,04,01,14,06,11.10
2004,04,01,14,07,11.20
2004,04,01,14,08,11.10
2004,04,01,14,09,11.10
2004,04,01,14,10,11.20
2004,04,01,14,11,11.20
2004,04,01,14,12,11.30
2004,04,01,14,13,11.30
2004,04,01,14,14,11.40
2004,04,01,14,15,11.40
2004,04,01,14,16,11.40
2004,04,01,14,17,11.50
2004,04,01,14,18,11.60
2004,04,01,14,19,11.60
2004,04,01,14,20,11.60
2004,04,01,14,21,11.60
2004,04,01,14,22,11.40
2004,04,01,14,23,11.40
2004,04,01,14,24,11.40
2004,04,01,14,25,11.50
2004,04,01,14,26,11.40
2004,04,01,14,27,11.20
2004,04,01,14,28,11.10
2004,04,01,14,29,11.10
2004,04,01,14,30,11.10
2004,04,01,14,31,11.20
2004,04,01,14,32,11.20
2004,04,01,14,33,11.30
2004,04,01,14,34,11.40
2004,04,01,14,35,11.40
2004,04,01,14,36,11.40
2004,04,01,14,37,11.50
2004,04,01,14,38,11.60
2004,04,01,14,39,11.60
2004,04,01,14,40,11.40
2004,04,01,14,41,11.40
2004,04,01,14,42,11.40
2004,04,01,14,43,11.40
2004,04,01,14,44,11.40
2004,04,01,14,45,11.40
2004,04,01,14,46,11.40
2004,04,01,14,47,11.40
2004,04,01,14,48,11.40
2004,04,01,14,49,11.30
2004,04,01,14,50,11.30
2004,04,01,14,51,11.40
2004,04,01,14,52,11.50
2004,04,01,14,53,11.50
2004,04,01,14,54,11.50
2004,04,01,14,55,11.60
2004,04,01,14,56,11.50
2004,04,01,14,57,11.60
2004,04,01,14,58,11.60
2004,04,01,14,59,11.70
2004,04,01,15,00,11.80
2004,04,01,15,01,11.90
2004,04,01,15,02,12.10
2004,04,01,15,03,12.40
2004,04,01,15,04,12.50
2004,04,01,15,05,12.60
2004,04,01,15,06,12.60
2004,04,01,15,07,12.60
2004,04,01,15,08,12.60
2004,04,01,15,09,12.70
2004,04,01,15,10,12.70
2004,04,01,15,11,12.60
2004,04,01,15,12,12.60
2004,04,01,15,13,12.50
2004,04,01,15,14,12.50
2004,04,01,15,15,12.60
2004,04,01,15,16,12.70
2004,04,01,15,17,12.70
2004,04,01,15,18,12.60
2004,04,01,15,19,12.60
2004,04,01,15,20,12.50
2004,04,01,15,21,12.50
2004,04,01,15,22,12.60
2004,04,01,15,23,12.70
2004,04,01,15,24,12.70
2004,04,01,15,25,12.80
2004,04,01,15,26,12.80
2004,04,01,15,27,12.80
2004,04,01,15,28,12.80
2004,04,01,15,29,12.80
2004,04,01,15,30,12.80
2004,04,01,15,31,12.80
2004,04,01,15,32,12.90
2004,04,01,15,33,13.00
2004,04,01,15,34,13.00
2004,04,01,15,35,12.90
2004,04,01,15,36,12.80
2004,04,01,15,37,12.50
2004,04,01,15,38,12.30
2004,04,01,15,39,12.30
2004,04,01,15,40,12.50
2004,04,01,15,41,12.70
2004,04,01,15,42,12.80
2004,04,01,15,43,12.80
2004,04,01,15,44,12.80
2004,04,01,15,45,12.80
2004,04,01,15,46,12.80
2004,04,01,15,47,12.80
2004,04,01,15,48,12.80
2004,04,01,15,49,12.90
2004,04,01,15,50,12.90
2004,04,01,15,51,12.90
2004,04,01,15,52,12.90
2004,04,01,15,53,12.90
2004,04,01,15,54,12.90
2004,04,01,15,55,12.90
2004,04,01,15,56,12.90
2004,04,01,15,57,12.80
2004,04,01,15,58,12.80
2004,04,01,15,59,12.90
2004,04,01,16,00,12.90
2004,04,01,16,01,13.00
2004,04,01,16,02,12.90
2004,04,01,16,03,12.90
2004,04,01,16,04,12.90
2004,04,01,16,05,13.00
2004,04,01,16,06,13.00
2004,04,01,16,07,13.00
2004,04,01,16,08,13.00
2004,04,01,16,09,13.10
2004,04,01,16,10,13.10
2004,04,01,16,11,12.80
2004,04,01,16,12,12.50
2004,04,01,16,13,12.30
2004,04,01,16,14,12.30
2004,04,01,16,15,12.30
2004,04,01,16,16,12.20
2004,04,01,16,17,12.20
2004,04,01,16,18,12.30
2004,04,01,16,19,12.30
2004,04,01,16,20,12.30
2004,04,01,16,21,12.30
2004,04,01,16,22,12.30
2004,04,01,16,23,12.30
2004,04,01,16,24,12.40
2004,04,01,16,25,12.40
2004,04,01,16,26,12.50
2004,04,01,16,27,12.50
2004,04,01,16,28,12.60
2004,04,01,16,29,12.60
2004,04,01,16,30,12.60
2004,04,01,16,31,12.50
2004,04,01,16,32,12.50
2004,04,01,16,33,12.50
2004,04,01,16,34,12.60
2004,04,01,16,35,12.60
2004,04,01,16,36,12.80
2004,04,01,16,37,13.00
2004,04,01,16,38,13.20
2004,04,01,16,39,13.20
2004,04,01,16,40,13.20
2004,04,01,16,41,13.30
2004,04,01,16,42,13.50
2004,04,01,16,43,13.60
2004,04,01,16,44,13.70
2004,04,01,16,45,13.50
2004,04,01,16,46,13.20
2004,04,01,16,47,13.00
2004,04,01,16,48,12.60
2004,04,01,16,49,12.30
2004,04,01,16,50,12.20
2004,04,01,16,51,12.00
2004,04,01,16,52,11.80
2004,04,01,16,53,11.80
2004,04,01,16,54,11.70
2004,04,01,16,55,11.60
2004,04,01,16,56,11.50
2004,04,01,16,57,11.40
2004,04,01,16,58,11.40
2004,04,01,16,59,11.60
2004,04,01,17,00,11.80
2004,04,01,17,01,12.10
2004,04,01,17,02,12.30
2004,04,01,17,03,12.40
2004,04,01,17,04,12.50
2004,04,01,17,05,12.60
2004,04,01,17,06,12.90
2004,04,01,17,07,13.00
2004,04,01,17,08,13.20
2004,04,01,17,09,13.40
2004,04,01,17,10,13.60
2004,04,01,17,11,13.70
2004,04,01,17,12,13.90
2004,04,01,17,13,14.10
2004,04,01,17,14,14.20
2004,04,01,17,15,14.20
2004,04,01,17,16,14.40
2004,04,01,17,17,14.40
2004,04,01,17,18,14.50
2004,04,01,17,19,14.20
2004,04,01,17,20,14.00
2004,04,01,17,21,14.00
2004,04,01,17,22,14.00
2004,04,01,17,23,13.90
2004,04,01,17,24,13.90
2004,04,01,17,25,13.90
2004,04,01,17,26,14.00
2004,04,01,17,27,14.00
2004,04,01,17,28,14.00
2004,04,01,17,29,14.00
2004,04,01,17,30,14.00
2004,04,01,17,31,14.00
2004,04,01,17,32,13.90
2004,04,01,17,33,13.80
2004,04,01,17,34,13.90
2004,04,01,17,35,13.90
2004,04,01,17,36,14.00
2004,04,01,17,37,14.10
2004,04,01,17,38,14.10
2004,04,01,17,39,14.10
2004,04,01,17,40,14.00
2004,04,01,17,41,14.00
2004,04,01,17,42,14.00
2004,04,01,17,43,14.00
2004,04,01,17,44,14.00
2004,04,01,17,45,13.90
2004,04,01,17,46,13.90
2004,04,01,17,47,14.00
2004,04,01,17,48,14.00
2004,04,01,17,49,14.00
2004,04,01,17,50,14.00
2004,04,01,17,51,14.00